Massena, NY

2:51 PM EDT on August 18, 2017 (GMT -0400)
Massena International-Richards

Weather History for KMSS - March, 2013

Change the Weather History Date:

Friday, March 1, 2013

  Actual Average Record
Temperature  
Mean Temperature 31 °F 22 °F  
Max Temperature 34 °F 32 °F 56 °F (2017)
Min Temperature 27 °F 12 °F -11 °F (1980)
Degree Days  
Heating Degree Days 34 43  
Month to date heating degree days 34 43  
Since 1 July heating degree days 5484 6030  
Cooling Degree Days 0 0  
Month to date cooling degree days 0  
Year to date cooling degree days 0  
Moisture  
Dew Point 28 °F    
Average Humidity 82    
Maximum Humidity 92    
Minimum Humidity 72    
Precipitation  
Precipitation 0.01 in 0.07 in 0.69 in (1987)
Month to date precipitation 0.01 0.07  
Year to date precipitation 2.26 4.02  
Sea Level Pressure  
Sea Level Pressure 29.78 in    
Wind  
Wind Speed 7 mph (NW)    
Max Wind Speed 16 mph    
Max Gust Speed 24 mph    
Visibility 6 miles    
Events Snow    
T = Trace of Precipitation, MM = Missing Value Source: NWS Daily Summary

Daily Weather History Graph

Daily Weather History Graph

Search for Another Location

Airport or City:

Trip Planner

Search our weather history database for the weather conditions in past years. The results will help you decide how hot, cold, wet, or windy it might be!

Date:

Astronomy

Mar. 01, 2013 Rise Set
Actual Time 6:36 AM EST 5:47 PM EST
Civil Twilight 6:07 AM EST 6:16 PM EST
Nautical Twilight 5:33 AM EST 6:50 PM EST
Astronomical Twilight 4:59 AM EST 7:24 PM EST
Moon 10:32 PM EST (3/1) 8:09 AM EST (3/1)
Length of Visible Light 12h 09m
Length of Day
11h 10m
Waning Gibbous, 83% of the Moon is Illuminated
Mar 1
Waning Gibbous
Mar 4
Last Quarter
Mar 11
New
Mar 19
First Quarter
Mar 27
Full

Hourly Weather History & Observations

Time (EST) Temp. Windchill Dew Point Humidity Pressure Visibility Wind Dir Wind Speed Gust Speed Precip Events Conditions
12:14 AM 33.8 °F 28.6 °F 30.2 °F 87% 29.69 in 7.0 mi NE 5.8 mph - N/A   Overcast
12:53 AM 32.0 °F 26.4 °F 30.0 °F 92% 29.70 in 3.0 mi NNE 5.8 mph - 0.00 in Snow Light Snow
1:11 AM 32.0 °F - 30.2 °F 93% 29.69 in 7.0 mi Calm Calm - 0.00 in   Overcast
1:53 AM 32.0 °F 26.4 °F 30.0 °F 92% 29.71 in 10.0 mi North 5.8 mph - 0.00 in   Overcast
2:53 AM 32.0 °F - 30.0 °F 92% 29.71 in 10.0 mi Calm Calm - N/A   Overcast
3:02 AM 32.0 °F 28.7 °F 30.2 °F 93% 29.69 in 10.0 mi North 3.5 mph - N/A   Overcast
3:53 AM 33.1 °F - 28.9 °F 85% 29.72 in 10.0 mi Calm Calm - N/A   Overcast
4:53 AM 32.0 °F - 30.0 °F 92% 29.74 in 4.0 mi Calm Calm - 0.00 in Snow Light Snow
5:15 AM 32.0 °F - 30.2 °F 93% 29.73 in 2.0 mi Calm Calm - 0.00 in Snow Light Snow
5:23 AM 32.0 °F 28.7 °F 30.2 °F 93% 29.73 in 1.5 mi WNW 3.5 mph - 0.00 in Snow Light Snow
5:53 AM 32.0 °F - 30.9 °F 96% 29.75 in 2.0 mi Calm Calm - 0.00 in Snow Light Snow
6:14 AM 32.0 °F 26.4 °F 30.2 °F 93% 29.73 in 2.0 mi NW 5.8 mph - 0.00 in Snow Light Snow
6:28 AM 32.0 °F 27.5 °F 30.2 °F 93% 29.73 in 2.5 mi NW 4.6 mph - 0.00 in Snow Light Snow
6:34 AM 32.0 °F 28.7 °F 30.2 °F 93% 29.72 in 4.0 mi NNE 3.5 mph - 0.00 in Snow Light Snow
6:46 AM 32.0 °F 28.7 °F 30.2 °F 93% 29.73 in 8.0 mi NW 3.5 mph - 0.00 in   Overcast
6:53 AM 32.0 °F - 30.9 °F 96% 29.75 in 8.0 mi Calm Calm - 0.00 in   Overcast
7:01 AM 32.0 °F 28.7 °F 30.2 °F 93% 29.74 in 7.0 mi WNW 3.5 mph - N/A   Overcast
7:28 AM 32.0 °F - 30.2 °F 93% 29.74 in 5.0 mi Calm Calm - 0.00 in   Overcast
7:51 AM 33.8 °F 29.6 °F 30.2 °F 87% 29.75 in 8.0 mi NW 4.6 mph - 0.00 in   Overcast
7:53 AM 33.1 °F 28.7 °F 30.0 °F 89% 29.77 in 8.0 mi NW 4.6 mph - 0.00 in   Overcast
8:08 AM 33.8 °F 28.6 °F 30.2 °F 87% 29.75 in 6.0 mi NW 5.8 mph - 0.00 in Snow Light Snow
8:38 AM 33.8 °F 26.4 °F 28.4 °F 81% 29.76 in 10.0 mi NW 9.2 mph - 0.00 in   Overcast
8:53 AM 33.1 °F 25.5 °F 27.0 °F 78% 29.77 in 10.0 mi NNW 9.2 mph - 0.00 in   Overcast
9:53 AM 34.0 °F 26.6 °F 27.0 °F 75% 29.78 in 10.0 mi NW 9.2 mph - N/A   Overcast
10:53 AM 34.0 °F 26.6 °F 27.0 °F 75% 29.78 in 10.0 mi NNW 9.2 mph - N/A   Overcast
11:53 AM 33.8 °F 27.7 °F 26.6 °F 75% 29.78 in 10.0 mi NW 6.9 mph - N/A   Overcast
12:53 PM 32.0 °F 22.5 °F 26.6 °F 80% 29.79 in 9.0 mi WNW 12.7 mph - N/A Snow Light Snow
1:53 PM 32.0 °F 23.6 °F 25.0 °F 75% 29.81 in 10.0 mi NW 10.4 mph - 0.00 in   Overcast
2:53 PM 32.0 °F 25.6 °F 25.0 °F 75% 29.82 in 10.0 mi NW 6.9 mph - 0.00 in   Overcast
3:53 PM 30.9 °F 23.5 °F 26.1 °F 82% 29.83 in 2.5 mi NW 8.1 mph - 0.00 in Snow Light Snow
4:29 PM 30.2 °F 21.3 °F 26.6 °F 86% 29.81 in 1.8 mi WNW 10.4 mph - 0.00 in Snow Light Snow
4:48 PM 30.2 °F 21.9 °F 26.6 °F 86% 29.82 in 2.5 mi WNW 9.2 mph - 0.00 in Snow Light Snow
4:53 PM 30.9 °F 23.5 °F 26.1 °F 82% 29.84 in 3.0 mi WNW 8.1 mph - 0.00 in Snow Light Snow
5:53 PM 30.9 °F 25.2 °F 27.0 °F 85% 29.85 in 2.5 mi WSW 5.8 mph - 0.00 in Snow Light Snow
5:55 PM 30.2 °F 24.3 °F 26.6 °F 86% 29.83 in 3.0 mi West 5.8 mph - 0.00 in Snow Light Snow
6:19 PM 30.2 °F 23.4 °F 26.6 °F 86% 29.84 in 4.0 mi West 6.9 mph - 0.00 in Snow Light Snow
6:53 PM 30.9 °F 23.5 °F 27.0 °F 85% 29.86 in 7.0 mi West 8.1 mph - 0.00 in Snow Light Snow
7:53 PM 30.9 °F 23.5 °F 26.1 °F 82% 29.86 in 6.0 mi WNW 8.1 mph 16.1 mph 0.00 in Snow Light Snow
8:50 PM 30.2 °F 20.8 °F 24.8 °F 80% 29.84 in 1.8 mi WNW 11.5 mph - 0.00 in Snow Light Snow
8:53 PM 30.0 °F 22.4 °F 25.0 °F 82% 29.86 in 1.8 mi WNW 8.1 mph - 0.00 in Snow Light Snow
9:04 PM 28.4 °F 19.1 °F 24.8 °F 86% 29.85 in 2.0 mi WNW 10.4 mph 17.3 mph 0.00 in Snow Light Snow
9:18 PM 28.4 °F 17.0 °F 24.8 °F 86% 29.85 in 4.0 mi WNW 15.0 mph 24.2 mph 0.00 in Snow Light Snow
9:53 PM 28.9 °F 19.2 °F 24.1 °F 82% 29.87 in 5.0 mi WNW 11.5 mph 18.4 mph 0.00 in Snow Light Snow
10:53 PM 28.0 °F 18.1 °F 23.0 °F 81% 29.87 in 6.0 mi WNW 11.5 mph - 0.00 in Snow Light Snow
11:30 PM 26.6 °F 17.5 °F 23.0 °F 86% 29.85 in 4.0 mi WNW 9.2 mph - 0.00 in Snow Light Snow
11:53 PM 27.0 °F 18.0 °F 23.0 °F 85% 29.87 in 5.0 mi West 9.2 mph - 0.00 in Snow Light Snow